Temperature
16 16 16 16 16 16 16 16 16 15 15 15 15 15 15 15 15 15 15 14 14 14 14 14 14 13 13 13 13 13 13 13 13 12 11 11 11 11 11 10 10 10 10
16 16 16 16 16 16 16 15 16 15 15 15 15 15 15 15 15 15 15 14 14 14 14 14 14 13 13 13 13 13 13 12 12 12 11 11 11 10 10 10 10 10 10
16 16 16 16 16 16 15 15 15 15 15 15 15 15 15 15 15 15 14 14 14 14 14 14 13 13 13 13 13 13 12 12 12 12 11 11 11 10 10 10 10 10 10
16 16 16 16 16 15 15 15 15 15 15 15 15 15 15 15 15 14 14 14 14 14 14 13 13 13 13 13 13 12 12 12 12 11 11 11 10 10 10 10 10 10 9
16 16 16 15 15 15 15 15 15 15 15 15 15 15 15 14 14 14 14 14 14 14 13 13 13 13 13 12 12 12 12 12 11 11 11 11 10 10 10 10 10 9 9
16 16 15 15 15 15 15 15 15 15 15 15 15 14 14 14 14 14 14 14 14 13 13 13 13 13 12 12 12 12 12 11 11 11 11 11 10 10 10 9 9 9 9
16 15 15 15 15 15 14 14 14 14 14 14 14 14 14 14 14 14 14 14 13 13 13 13 13 12 12 12 12 12 11 11 11 11 11 10 10 10 10 9 9 9 9
15 15 15 15 15 15 14 14 14 14 14 14 14 14 14 14 14 14 13 13 13 13 13 13 12 12 12 12 12 11 11 11 11 10 10 10 10 9 9 9 9 9 8
15 15 15 15 15 14 14 14 14 14 14 14 14 14 14 14 13 13 13 13 13 13 12 12 12 12 12 11 11 11 11 11 11 10 10 10 9 9 9 9 9 8 8
15 15 15 15 15 14 14 14 14 14 14 14 13 13 13 13 13 13 13 13 13 13 12 12 12 12 11 11 11 11 11 11 10 10 10 10 9 9 9 9 8 8 8
15 15 15 15 15 14 14 14 14 13 13 13 13 13 13 13 13 13 12 12 12 12 12 12 12 11 11 11 11 11 10 10 10 10 10 9 9 9 9 8 8 8 7
15 15 14 14 14 14 14 14 13 13 13 13 13 13 13 12 12 12 12 12 12 12 12 12 11 11 11 11 10 10 10 10 10 10 10 9 9 9 8 8 8 7 7
15 14 14 14 14 14 14 13 13 13 13 12 12 12 12 12 12 12 12 12 12 11 11 11 11 11 11 10 10 10 10 10 10 10 9 9 9 8 8 8 7 7 7
14 14 14 14 13 13 13 13 13 13 12 12 12 12 12 12 12 11 11 11 11 11 11 11 11 10 10 10 10 10 10 9 9 9 9 9 8 8 8 7 7 7 7
14 14 13 13 13 13 13 13 12 12 12 12 12 12 11 11 11 11 11 11 11 11 11 10 10 10 10 10 10 10 9 9 9 9 9 8 8 8 7 7 7 6 6
14 13 13 13 13 13 12 12 12 12 12 12 12 11 11 11 11 11 11 11 10 10 10 10 10 10 10 10 9 9 9 9 9 8 8 8 8 7 7 7 6 6 5
13 13 13 13 12 12 12 12 12 12 11 11 11 11 11 11 11 11 10 10 10 10 10 10 10 10 9 9 9 9 9 8 8 8 8 7 7 7 6 6 6 5 5
13 13 13 12 12 12 12 12 12 12 11 11 11 11 11 10 10 10 10 10 10 10 10 10 10 9 9 9 9 8 8 8 8 8 7 7 7 6 6 6 5 5 4
13 12 12 12 12 12 12 12 11 11 11 11 11 11 10 10 10 10 10 10 10 10 9 9 9 9 9 9 8 8 8 8 8 7 7 7 6 6 6 5 5 4 4
12 12 12 12 12 11 11 11 11 11 11 11 11 11 10 10 10 10 9 9 9 9 9 9 9 9 8 8 8 8 8 8 7 7 7 6 6 5 5 5 4 4 4
12 12 12 12 11 11 11 11 11 11 10 10 10 10 10 10 10 10 9 9 9 9 9 9 8 8 8 8 8 8 7 7 7 7 6 6 6 5 5 4 4 4 3
12 11 11 11 11 11 11 11 10 10 10 10 10 10 9 9 9 9 9 9 9 9 8 8 8 8 8 7 7 7 7 7 6 6 6 5 5 5 4 4 4 3 3
11 11 11 11 11 11 10 10 10 10 10 10 9 9 9 9 9 9 9 8 8 8 8 8 8 7 7 7 7 7 7 6 6 6 5 5 5 4 4 4 4 3 3
11 11 11 10 10 10 10 10 10 9 9 9 9 9 9 9 8 8 8 8 8 8 7 7 7 7 7 7 6 6 6 6 5 5 5 5 4 4 4 3 3 3 2
10 10 10 10 10 10 10 9 9 9 9 9 8 8 8 8 8 8 8 7 7 7 7 7 7 6 6 6 6 6 5 5 5 5 4 4 4 4 3 3 3 3 2
10 10 10 10 10 9 9 9 9 9 8 8 8 8 8 8 7 7 7 7 7 7 6 6 6 6 6 6 5 5 5 5 4 4 4 4 3 3 3 3 3 2 2
Wind_Speed
6 5 5 5 5 5 5 5 5 4 5 5 5 5 5 4 4 4 4 4 5 3 3 4 3 3 2 2 2 3 2 3 3 0 0 0 2 2 2 3 3 3 3
6 6 6 5 5 5 5 4 4 4 4 5 5 5 5 5 4 5 5 5 5 4 3 4 3 3 3 2 2 3 3 3 4 3 1 1 0 1 1 1 2 2 2
6 6 6 6 6 6 5 4 4 4 4 4 5 5 5 5 5 5 5 5 5 4 4 4 3 4 3 2 3 3 2 3 3 4 2 0 0 1 1 1 1 2 1
7 7 7 7 7 6 5 5 5 5 5 4 4 4 4 5 5 5 5 5 4 4 4 4 4 4 4 3 3 3 3 3 3 3 2 1 0 1 1 0 1 2 2
7 7 7 6 6 6 6 5 5 5 5 4 4 4 3 3 5 6 6 5 5 4 3 2 3 4 5 5 4 4 5 4 3 3 2 1 0 0 1 1 1 1 2
8 8 7 7 6 6 6 5 5 5 4 4 4 4 3 3 6 9 7 5 5 5 4 2 2 2 3 5 6 7 8 6 5 4 2 2 3 2 1 1 1 1 2
7 7 7 7 7 7 6 6 5 5 4 4 4 4 3 3 6 9 10 6 5 4 4 3 2 2 3 2 3 4 4 5 7 6 5 5 4 4 3 2 2 2 3
7 7 7 8 7 6 6 6 5 4 4 4 4 4 4 3 6 8 9 6 4 3 3 4 4 3 3 4 4 3 1 1 3 4 5 5 4 4 5 4 4 2 2
8 8 8 8 8 8 7 6 5 5 4 4 4 5 4 4 6 8 7 4 4 3 3 3 4 4 5 7 5 4 1 1 1 3 4 4 4 4 4 3 2 1 2
9 9 8 8 9 9 8 6 4 5 5 5 4 4 5 4 5 7 7 4 4 2 2 2 4 5 6 7 6 5 4 3 2 1 1 1 1 1 2 3 4 2 1
8 8 8 8 8 8 7 6 6 6 5 5 4 3 3 4 5 7 7 4 4 4 3 2 2 5 6 6 6 5 6 4 3 3 1 0 0 0 1 1 3 3 3
6 7 8 8 7 6 7 6 6 7 6 5 4 3 2 2 4 6 7 7 5 4 4 3 3 5 6 6 5 5 5 4 3 2 1 1 1 2 1 1 1 2 3
6 6 7 7 6 7 7 7 6 6 5 5 5 4 3 2 3 5 7 8 7 4 3 5 5 5 4 3 4 5 4 3 3 2 2 3 3 2 1 0 0 0 2
6 5 5 6 5 5 6 6 6 7 6 6 6 5 4 3 3 3 3 3 5 4 3 3 4 4 3 2 2 2 2 3 3 3 3 3 1 1 1 1 1 1 1
5 4 5 5 6 5 5 5 7 7 9 9 7 7 6 6 7 8 6 5 4 4 3 1 1 1 2 2 1 1 1 2 2 2 2 2 2 2 2 1 1 1 1
5 4 5 4 4 4 4 3 4 5 8 10 10 9 7 8 8 9 9 8 8 8 5 3 3 3 4 4 4 3 3 3 3 3 3 3 3 3 3 2 2 2 3
6 5 4 5 5 5 5 5 4 2 3 7 9 10 9 8 8 8 8 7 7 8 4 4 4 4 4 4 4 4 4 4 3 3 4 4 3 3 3 3 3 3 3
5 6 5 5 5 5 6 6 6 6 4 3 4 8 9 9 8 8 7 5 3 4 4 4 5 5 5 5 5 4 4 3 3 4 4 4 4 4 3 3 3 4 4
5 4 5 5 5 5 5 5 5 5 5 4 2 3 5 6 6 6 7 5 5 5 4 5 4 4 4 4 4 4 4 4 4 4 4 4 4 4 4 4 4 4 4
5 6 5 4 4 4 4 5 5 5 5 5 5 4 4 3 3 3 4 5 5 5 5 5 4 4 4 4 4 4 4 4 4 4 4 4 4 4 5 5 4 4 4
4 5 5 4 4 5 5 5 5 5 5 5 5 5 7 5 5 5 5 5 5 5 5 5 4 4 4 4 4 4 5 4 4 5 5 4 4 4 4 4 5 5 4
4 4 4 4 4 4 4 4 4 4 5 5 3 3 7 4 3 4 4 4 4 4 5 4 4 4 4 4 5 5 4 4 4 4 4 4 4 4 4 4 4 4 4
4 4 3 3 3 4 4 3 4 4 4 4 4 3 4 4 3 3 3 3 3 3 4 4 3 3 3 4 5 5 5 5 5 5 4 4 4 4 4 5 5 5 5
4 4 4 3 3 3 3 3 4 4 4 4 3 3 4 3 3 3 3 2 2 3 3 3 4 4 3 3 3 4 5 5 5 5 5 4 4 4 4 4 5 5 6
4 4 4 4 4 4 3 3 3 3 3 3 3 3 3 3 3 2 2 2 3 2 2 3 3 3 4 3 3 3 4 4 4 4 4 4 4 5 5 5 5 5 5
4 4 4 4 4 4 4 4 4 4 4 3 3 3 3 3 3 3 2 2 2 2 3 3 3 3 3 3 3 4 4 4 4 4 4 4 4 4 4 4 5 5 5
Wind_Direction
172 170 160 162 159 156 160 169 169 165 162 160 158 153 147 142 136 129 129 125 119 110 103 107 106 108 105 100 105 101 102 117 136 186 1 86 101 101 83 87 72 65 54
173 164 163 159 153 154 160 164 155 151 160 162 156 152 156 152 147 143 142 132 132 131 124 112 115 116 105 103 104 105 111 114 133 135 71 68 140 175 132 96 65 45 52
167 160 158 157 156 160 162 153 143 139 139 144 145 151 157 154 148 148 144 143 144 146 144 141 146 127 119 114 107 111 112 104 105 131 144 124 31 51 63 32 28 6 356
166 162 164 169 169 167 158 149 148 144 143 142 140 148 154 154 151 149 142 141 141 145 155 159 161 155 160 149 135 137 126 111 106 117 123 103 35 1 80 49 342 320 309
167 169 175 172 166 157 149 152 152 150 150 148 136 132 138 154 166 158 152 148 143 141 144 158 167 162 163 160 154 157 145 136 126 125 131 102 336 129 225 231 226 305 306
172 177 173 164 162 160 159 156 149 150 143 135 141 145 149 164 164 164 156 151 155 156 159 163 160 152 160 155 152 154 157 157 162 159 169 186 221 218 203 177 149 47 298
173 174 170 166 165 167 165 156 157 163 154 150 159 152 154 164 155 157 155 146 148 158 164 167 164 145 137 134 140 143 157 167 168 169 178 202 203 206 176 175 190 196 235
175 176 172 168 167 164 161 165 169 165 160 162 164 161 157 166 154 148 151 140 138 154 165 168 162 162 153 149 136 119 116 161 185 184 191 200 197 190 181 185 191 202 280
182 184 182 176 171 169 171 176 175 161 161 166 171 168 168 178 165 154 143 142 146 165 174 163 161 167 166 151 140 143 147 264 147 159 171 175 175 170 157 124 112 106 288
191 189 184 179 177 179 182 180 176 169 172 166 170 177 176 184 177 164 151 150 159 174 181 190 177 177 175 162 158 162 181 220 186 120 110 103 134 164 171 172 175 170 217
188 182 181 184 183 183 179 174 167 167 163 163 168 180 185 189 186 176 163 159 177 180 189 209 219 188 180 176 170 181 195 184 170 161 160 169 47 25 275 226 189 177 186
172 178 181 183 185 182 171 172 167 161 161 167 166 178 211 214 197 192 184 179 171 180 202 208 205 180 173 176 178 186 182 162 147 151 166 214 231 246 259 246 219 206 206
163 178 183 181 181 174 172 173 171 169 172 181 177 189 216 228 218 204 194 186 177 185 205 195 186 180 175 184 191 180 168 161 155 173 210 234 236 232 216 168 1 254 288
166 174 176 174 175 172 177 177 179 182 183 189 192 198 208 216 215 207 204 192 187 197 202 192 186 179 174 178 176 179 177 180 179 202 221 238 235 210 214 204 208 222 283
166 169 176 179 179 177 183 191 194 199 194 193 201 196 196 215 222 205 194 197 197 194 165 134 131 167 196 208 209 208 202 197 209 214 212 225 231 232 245 231 208 195 227
171 175 177 177 180 179 179 192 211 204 203 201 199 194 206 210 204 201 201 197 190 174 154 175 196 203 207 210 211 220 215 215 218 214 214 220 225 229 239 234 216 219 245
179 183 179 177 180 184 186 187 195 231 206 203 202 200 201 199 199 197 195 190 186 169 169 195 206 211 216 213 212 216 223 221 209 205 215 223 226 229 230 235 232 236 250
178 185 184 185 185 190 195 193 190 190 194 212 213 205 200 198 200 199 185 161 181 183 198 204 213 218 218 214 213 217 222 218 210 215 221 226 225 224 227 235 235 236 248
179 185 186 185 187 192 191 187 188 191 193 194 187 197 193 188 190 191 172 180 196 208 215 216 217 219 220 217 213 211 211 215 215 213 220 224 222 218 229 236 239 249 249
191 194 184 179 179 185 187 186 189 189 191 196 202 204 184 164 181 193 194 198 203 214 218 218 218 217 216 215 212 212 215 219 220 222 224 225 223 218 225 233 238 243 246
188 190 184 179 184 188 190 193 193 191 195 203 212 203 182 183 194 198 201 205 209 214 215 217 217 215 218 220 216 215 217 226 225 222 223 223 217 219 226 231 238 242 247
182 187 190 193 193 191 192 191 188 191 196 198 202 191 183 178 189 196 202 210 214 213 208 207 217 217 213 213 213 211 217 226 229 226 225 223 220 223 225 228 237 243 246
172 176 182 185 185 182 181 178 181 189 193 192 186 181 182 189 195 198 202 207 205 202 195 191 201 213 216 218 213 204 213 225 225 220 221 227 227 228 230 235 238 244 248
168 171 174 174 169 172 178 184 186 187 188 186 185 184 186 189 191 193 192 188 187 185 185 187 193 203 209 212 216 214 214 223 226 218 212 218 229 236 235 241 246 247 251
169 172 173 175 176 179 182 184 188 188 188 188 189 187 184 181 184 190 184 177 177 182 188 187 190 200 206 213 220 219 227 232 233 229 214 210 226 234 236 243 252 257 253
170 173 176 175 176 178 181 185 190 188 188 187 183 180 179 182 184 183 178 174 182 191 194 197 204 205 207 212 224 225 231 239 243 238 217 208 226 237 241 248 252 254 256
Height
1540 1542 1543 1544 1546 1547 1548 1549 1550 1551 1552 1553 1554 1555 1555 1556 1557 1557 1557 1558 1558 1558 1559 1559 1559 1559 1560 1560 1561 1561 1561 1562 1562 1562 1562 1563 1562 1562 1561 1560 1559 1558 1557
1538 1540 1541 1543 1544 1545 1546 1548 1549 1550 1551 1552 1553 1554 1554 1555 1556 1556 1556 1557 1557 1558 1558 1558 1559 1559 1559 1560 1560 1560 1561 1561 1561 1561 1561 1561 1561 1561 1561 1560 1559 1558 1557
1536 1538 1539 1540 1542 1543 1545 1546 1547 1548 1550 1551 1552 1553 1553 1554 1555 1555 1556 1556 1557 1557 1558 1558 1558 1559 1559 1559 1559 1559 1560 1560 1560 1560 1560 1560 1560 1560 1560 1559 1559 1557 1556
1534 1535 1537 1538 1540 1541 1543 1544 1546 1547 1548 1549 1550 1551 1552 1553 1554 1554 1555 1555 1556 1556 1557 1557 1557 1558 1558 1558 1558 1558 1559 1559 1559 1559 1559 1559 1559 1559 1558 1558 1557 1556 1555
1531 1533 1535 1536 1538 1540 1541 1542 1544 1546 1547 1548 1549 1550 1551 1551 1552 1553 1554 1554 1555 1555 1555 1556 1556 1556 1556 1557 1557 1557 1557 1558 1558 1558 1558 1558 1557 1557 1557 1556 1555 1555 1554
1528 1530 1532 1534 1536 1537 1539 1541 1542 1544 1545 1546 1547 1548 1549 1550 1551 1551 1552 1553 1553 1554 1554 1554 1555 1555 1555 1555 1555 1555 1556 1556 1556 1556 1556 1556 1555 1555 1555 1554 1554 1552 1551
1526 1528 1530 1532 1533 1535 1537 1539 1541 1542 1544 1545 1546 1547 1548 1549 1549 1550 1551 1551 1552 1552 1553 1553 1553 1553 1553 1553 1554 1554 1554 1554 1555 1555 1554 1554 1554 1554 1553 1552 1551 1550 1550
1523 1525 1527 1529 1531 1533 1535 1536 1538 1540 1541 1543 1544 1545 1546 1547 1548 1548 1549 1549 1550 1550 1551 1551 1551 1552 1552 1552 1552 1552 1552 1552 1552 1552 1552 1552 1552 1552 1551 1551 1550 1549 1548
1520 1522 1524 1526 1528 1530 1532 1534 1536 1538 1539 1540 1542 1543 1544 1545 1546 1546 1547 1547 1548 1548 1548 1549 1549 1549 1550 1550 1550 1550 1550 1550 1550 1550 1550 1550 1550 1549 1549 1548 1547 1546 1544
1517 1519 1522 1524 1526 1527 1529 1531 1533 1535 1537 1538 1539 1540 1541 1542 1543 1544 1544 1545 1545 1546 1546 1547 1547 1547 1547 1547 1547 1547 1547 1547 1548 1547 1547 1547 1547 1547 1546 1545 1544 1543 1542
1515 1517 1519 1521 1522 1524 1526 1528 1530 1532 1534 1535 1536 1537 1538 1539 1540 1541 1542 1542 1543 1543 1543 1544 1544 1545 1545 1545 1545 1545 1545 1545 1545 1545 1545 1544 1544 1543 1543 1542 1541 1541 1539
1512 1513 1515 1517 1519 1521 1523 1525 1527 1528 1530 1531 1533 1534 1535 1536 1537 1538 1539 1539 1540 1540 1540 1541 1542 1542 1542 1542 1542 1542 1542 1543 1542 1542 1541 1541 1541 1540 1540 1539 1538 1537 1536
1509 1510 1512 1514 1516 1518 1519 1521 1523 1524 1526 1527 1529 1530 1531 1533 1534 1535 1536 1536 1536 1537 1537 1538 1538 1539 1539 1539 1539 1539 1539 1539 1539 1538 1538 1537 1537 1537 1536 1535 1534 1533 1532
1505 1507 1508 1510 1512 1514 1515 1517 1519 1520 1522 1523 1525 1526 1527 1528 1530 1531 1532 1532 1533 1533 1534 1534 1535 1535 1535 1535 1535 1535 1535 1535 1535 1534 1534 1534 1534 1533 1532 1531 1530 1529 1528
1502 1504 1505 1506 1508 1510 1511 1513 1514 1516 1518 1519 1521 1522 1523 1524 1525 1527 1528 1529 1529 1530 1530 1530 1531 1531 1531 1531 1531 1531 1532 1531 1531 1531 1530 1530 1529 1529 1528 1527 1526 1525 1523
1499 1500 1501 1502 1504 1506 1507 1509 1511 1513 1514 1516 1517 1519 1520 1521 1522 1523 1524 1525 1526 1526 1527 1526 1526 1527 1527 1527 1527 1527 1527 1527 1527 1527 1526 1525 1525 1524 1523 1523 1522 1520 1519
1496 1497 1498 1499 1500 1502 1503 1505 1506 1508 1510 1512 1513 1515 1516 1517 1518 1519 1520 1521 1522 1522 1522 1522 1522 1522 1523 1523 1523 1523 1523 1523 1523 1522 1521 1521 1520 1519 1519 1518 1517 1515 1514
1493 1494 1495 1496 1497 1498 1500 1501 1503 1504 1505 1507 1509 1510 1512 1513 1514 1515 1516 1517 1517 1517 1517 1517 1518 1518 1518 1518 1518 1518 1518 1518 1518 1517 1517 1516 1515 1514 1513 1512 1511 1510 1509
1490 1490 1492 1493 1494 1495 1496 1497 1499 1500 1502 1503 1504 1506 1507 1509 1510 1511 1512 1512 1512 1512 1512 1513 1513 1513 1513 1513 1513 1514 1513 1513 1512 1512 1511 1511 1510 1509 1508 1507 1506 1505 1504
1486 1487 1488 1489 1490 1491 1492 1494 1495 1496 1497 1499 1500 1501 1503 1504 1505 1506 1506 1507 1507 1508 1508 1508 1509 1509 1509 1509 1509 1509 1508 1508 1507 1507 1506 1505 1504 1504 1503 1502 1501 1500 1499
1483 1484 1485 1486 1487 1488 1489 1490 1491 1492 1493 1495 1496 1497 1499 1499 1500 1501 1502 1502 1503 1504 1504 1504 1504 1504 1504 1504 1504 1504 1503 1503 1502 1501 1501 1500 1499 1498 1497 1497 1496 1495 1493
1479 1480 1481 1482 1483 1484 1485 1486 1487 1488 1490 1491 1492 1494 1495 1495 1496 1496 1497 1498 1499 1499 1500 1500 1500 1500 1500 1500 1499 1499 1498 1497 1497 1496 1495 1494 1493 1492 1492 1491 1490 1489 1488
1476 1477 1477 1479 1480 1480 1482 1482 1484 1485 1486 1487 1488 1489 1490 1491 1492 1492 1493 1494 1494 1495 1495 1495 1495 1495 1495 1495 1495 1494 1493 1492 1492 1491 1490 1489 1488 1487 1486 1485 1484 1483 1482
1472 1473 1474 1475 1476 1477 1478 1479 1480 1481 1482 1483 1484 1485 1486 1487 1488 1488 1489 1489 1490 1490 1490 1490 1490 1490 1490 1490 1490 1489 1488 1487 1487 1486 1485 1483 1483 1482 1481 1480 1479 1478 1477
1468 1469 1470 1471 1472 1473 1474 1475 1476 1477 1478 1479 1480 1481 1482 1482 1483 1484 1484 1485 1485 1485 1485 1486 1486 1486 1485 1485 1484 1483 1483 1482 1481 1480 1479 1478 1477 1476 1476 1475 1474 1472 1471
1463 1465 1466 1467 1468 1469 1470 1471 1472 1473 1474 1475 1476 1476 1477 1478 1478 1479 1480 1480 1480 1480 1481 1481 1481 1481 1480 1480 1479 1478 1477 1477 1476 1475 1474 1473 1472 1471 1470 1469 1468 1467 1466